Other Surface Observations
Issued by NWS Upton, NY

Home | Current Version | Previous Version | Text Only | Print | Product List | Glossary On
Versions: 1 2 3 4 5 6 7 8 9 10 11 12 13 14 15 16 17 18 19 20 21 22 23 24 25 26 27 28 29 30 31 32 33 34 35 36 37 38 39 40 41 42 43 44 45 46 47 48 49 50
000
SXUS51 KOKX 251257
OSOOKX
NEW YORK CITY METROPOLITAN WEATHER ROUNDUP
NATIONAL WEATHER SERVICE NEW YORK NY
900 AM EDT FRI JUL 25 2014


CITY           SKY/WX    TMP DP  RH WIND       PRES   REMARKS
CENTRAL PARK   SUNNY     70  55  59 N9        30.06R
LAGUARDIA APRT NOT AVBL
KENNEDY INTL   MOSUNNY   75  54  47 N9        30.03R
NEWARK/LIBERTY MOSUNNY   71  55  56 N10       30.03R
TETERBORO APRT SUNNY     74  53  48 N7        30.03R
BNX BOT. GARD.   N/A     70  54  56 N8        30.05R

>>>>>>>>>>>>>>>>>>>>>>>>>>>>>>>>> KEY <<<<<<<<<<<<<<<<<<<<<<<<<<<<<<<
> SKY/WX - SKY CONDITION/           : R : WCI - WIND CHILL INDEX    <
>          PRESENT WEATHER          : E : VSB - VISIBILITY IN MILES <
> TMP    - TEMPERATURE IN DEG F     : M : HX  - HEAT INDEX          <
> DP     - DEW POINT TEMPERATURE    : A : TC  - TEMPERATURE IN      <
> RH     - RELATIVE HUMIDITY        : R :       CELSIUS             <
> WIND   - DIRECTION/SPEED (MPH)    : K : VRB - VARIABLE WIND  DIR  <
> PRES   - PRESSURE (IN HG)         : S :                           <
>>>>>>>>>>>>>>>>>>>>>>>>>>>>>>>>> KEY <<<<<<<<<<<<<<<<<<<<<<<<<<<<<<<


USA.gov is the U.S. government's official web portal to all federal, state and local government web resources and services.